• In Uzbekistan
  • List of Countries
  • For 7 days
  • Water Temperature
  • Satellite Maps
  • Weather Map
  • Weather Widgets
  • user-avatar
    Login

    Hourly Weather Altena

    Today, 23 November, Thursday

    Time Temperature Precipitation Wind Pressure Humidity
    00:00 +7°C° 0 mm 5 mps 731 mmHg 68%
    01:00 +7°C° 0 mm 5 mps 731 mmHg 67%
    02:00 +7°C° 0 mm 5 mps 730 mmHg 68%
    03:00 +7°C° 0 mm 5 mps 730 mmHg 69%
    04:00 +7°C° 0 mm 5 mps 730 mmHg 70%
    05:00 +7°C° 0 mm 5 mps 730 mmHg 71%
    06:00 +7°C° 0 mm 6 mps 729 mmHg 72%
    07:00 +8°C° 0 mm 6 mps 729 mmHg 72%
    08:00 +8°C° 0 mm 6 mps 729 mmHg 71%
    09:00 +9°C° 0 mm 7 mps 730 mmHg 70%
    10:00 +10°C° 0 mm 7 mps 730 mmHg 68%
    11:00 +11°C° 0 mm 7 mps 730 mmHg 67%
    12:00 +11°C° 0 mm 7 mps 730 mmHg 65%
    13:00 +12°C° 0 mm 7 mps 730 mmHg 64%
    14:00 +12°C° 0 mm 7 mps 730 mmHg 66%
    15:00 +13°C° 0 mm 6 mps 731 mmHg 69%
    16:00 +13°C° 0 mm 6 mps 731 mmHg 71%
    17:00 +12°C° 0.2 mm 5 mps 732 mmHg 75%
    18:00 +12°C° 0.2 mm 5 mps 733 mmHg 78%
    19:00 +11°C° 0.2 mm 4 mps 733 mmHg 82%
    20:00 +11°C° 0.1 mm 4 mps 734 mmHg 81%
    21:00 +10°C° 0.1 mm 4 mps 734 mmHg 81%
    22:00 +10°C° 0.1 mm 3 mps 735 mmHg 81%
    23:00 +10°C° 0 mm 3 mps 735 mmHg 81%

    Tomorrow, 24 November, Friday

    Time Temperature Precipitation Wind Pressure Humidity
    00:00 +9°C° 0 mm 3 mps 735 mmHg 81%
    01:00 +9°C° 0 mm 2 mps 735 mmHg 81%
    02:00 +9°C° 0 mm 3 mps 735 mmHg 83%
    03:00 +9°C° 0 mm 3 mps 734 mmHg 85%
    04:00 +9°C° 0 mm 3 mps 734 mmHg 86%
    05:00 +10°C° 0.4 mm 4 mps 733 mmHg 85%
    06:00 +9°C° 0.4 mm 5 mps 733 mmHg 84%
    07:00 +10°C° 0.4 mm 6 mps 732 mmHg 83%
    08:00 +10°C° 0.3 mm 6 mps 732 mmHg 82%
    09:00 +10°C° 0.3 mm 6 mps 732 mmHg 81%
    10:00 +10°C° 0.3 mm 6 mps 732 mmHg 81%
    11:00 +10°C° 0.3 mm 6 mps 732 mmHg 80%
    12:00 +10°C° 0.3 mm 6 mps 733 mmHg 80%
    13:00 +10°C° 0.3 mm 7 mps 733 mmHg 80%
    14:00 +9°C° 0.3 mm 6 mps 733 mmHg 80%
    15:00 +7°C° 0.3 mm 5 mps 734 mmHg 81%
    16:00 +6°C° 0.3 mm 4 mps 735 mmHg 82%
    17:00 +6°C° 0.1 mm 4 mps 736 mmHg 82%
    18:00 +5°C° 0.1 mm 3 mps 737 mmHg 82%
    19:00 +6°C° 0.1 mm 2 mps 737 mmHg 81%
    20:00 +5°C° 0 mm 2 mps 738 mmHg 82%
    21:00 +5°C° 0 mm 2 mps 738 mmHg 83%
    22:00 +6°C° 0 mm 1 mps 738 mmHg 84%
    23:00 +6°C° 0 mm 1 mps 738 mmHg 84%

    Day after tomorrow, 25 November, Saturday

    Time Temperature Precipitation Wind Pressure Humidity
    00:00 +5°C° 0 mm 1 mps 738 mmHg 85%
    01:00 +5°C° 0 mm 1 mps 738 mmHg 86%
    02:00 +4°C° 0 mm 0 mps 738 mmHg 86%
    03:00 +4°C° 0 mm 0 mps 738 mmHg 86%
    04:00 +4°C° 0 mm 0 mps 738 mmHg 87%
    05:00 +4°C° 0 mm 0 mps 738 mmHg 87%
    06:00 +4°C° 0 mm 0 mps 737 mmHg 87%
    07:00 +4°C° 0 mm 0 mps 737 mmHg 87%
    08:00 +4°C° 0 mm 0 mps 737 mmHg 86%
    09:00 +4°C° 0 mm 0 mps 737 mmHg 85%
    10:00 +4°C° 0 mm 0 mps 737 mmHg 84%
    11:00 +5°C° 0 mm 0 mps 737 mmHg 80%
    12:00 +6°C° 0 mm 1 mps 737 mmHg 76%
    13:00 +7°C° 0 mm 1 mps 737 mmHg 73%
    14:00 +5°C° 0.2 mm 2 mps 737 mmHg 74%
    15:00 +5°C° 0.2 mm 2 mps 737 mmHg 76%
    16:00 +4°C° 0.2 mm 2 mps 737 mmHg 77%
    17:00 +4°C° 0.3 mm 2 mps 737 mmHg 77%
    18:00 +3°C° 0.3 mm 3 mps 738 mmHg 77%
    19:00 +2°C° 0.3 mm 3 mps 738 mmHg 77%
    20:00 +2°C° 0.1 mm 3 mps 738 mmHg 78%
    21:00 +2°C° 0.1 mm 3 mps 739 mmHg 78%
    22:00 +1°C° 0.1 mm 3 mps 740 mmHg 78%
    23:00 +1°C° 0 mm 3 mps 740 mmHg 80%

    26 November, Sunday

    Time Temperature Precipitation Wind Pressure Humidity
    00:00 0°C° 0 mm 4 mps 740 mmHg 81%
    01:00 -1°C° 0 mm 4 mps 741 mmHg 83%
    02:00 -1°C° 0 mm 4 mps 741 mmHg 82%
    03:00 -1°C° 0 mm 4 mps 741 mmHg 82%
    04:00 -1°C° 0 mm 4 mps 741 mmHg 82%
    05:00 -1°C° 0 mm 4 mps 741 mmHg 81%
    06:00 -1°C° 0 mm 4 mps 741 mmHg 81%
    07:00 -2°C° 0 mm 4 mps 742 mmHg 81%
    08:00 -1°C° 0 mm 5 mps 742 mmHg 79%
    09:00 -1°C° 0 mm 5 mps 742 mmHg 77%
    10:00 0°C° 0 mm 5 mps 742 mmHg 75%
    11:00 0°C° 0 mm 5 mps 742 mmHg 74%
    12:00 +1°C° 0 mm 6 mps 742 mmHg 73%
    13:00 +2°C° 0 mm 6 mps 742 mmHg 72%
    14:00 +2°C° 0 mm 6 mps 743 mmHg 73%
    15:00 +1°C° 0 mm 5 mps 743 mmHg 74%
    16:00 +1°C° 0 mm 5 mps 743 mmHg 76%
    17:00 +1°C° 0.1 mm 5 mps 743 mmHg 77%
    18:00 +1°C° 0.1 mm 5 mps 743 mmHg 78%
    19:00 +1°C° 0.1 mm 5 mps 743 mmHg 79%
    20:00 +1°C° 0.1 mm 5 mps 743 mmHg 80%
    21:00 +1°C° 0.1 mm 5 mps 743 mmHg 81%
    22:00 0°C° 0.1 mm 4 mps 743 mmHg 83%
    23:00 0°C° 0.1 mm 4 mps 743 mmHg 84%

    27 November, Monday

    Time Temperature Precipitation Wind Pressure Humidity
    00:00 0°C° 0.1 mm 4 mps 743 mmHg 85%
    01:00 0°C° 0.1 mm 4 mps 743 mmHg 86%
    02:00 0°C° 0 mm 4 mps 743 mmHg 86%
    03:00 0°C° 0 mm 4 mps 743 mmHg 87%
    04:00 0°C° 0 mm 4 mps 743 mmHg 88%
    05:00 0°C° 0.1 mm 4 mps 743 mmHg 88%
    06:00 0°C° 0.1 mm 4 mps 743 mmHg 88%
    07:00 0°C° 0.1 mm 4 mps 743 mmHg 88%
    08:00 0°C° 0.1 mm 4 mps 743 mmHg 86%
    09:00 0°C° 0.1 mm 4 mps 743 mmHg 84%
    10:00 +1°C° 0.1 mm 5 mps 743 mmHg 82%
    11:00 +1°C° 0 mm 5 mps 742 mmHg 79%
    12:00 +2°C° 0 mm 5 mps 742 mmHg 75%
    13:00 +2°C° 0 mm 5 mps 741 mmHg 72%
    14:00 +2°C° 0.4 mm 6 mps 740 mmHg 74%
    15:00 +2°C° 0.4 mm 6 mps 739 mmHg 76%
    16:00 +2°C° 0.4 mm 6 mps 739 mmHg 78%
    17:00 +2°C° 0.6 mm 6 mps 738 mmHg 80%
    18:00 +2°C° 0.6 mm 6 mps 738 mmHg 82%
    19:00 +2°C° 0.6 mm 6 mps 737 mmHg 84%
    20:00 +3°C° 0.3 mm 6 mps 737 mmHg 85%
    21:00 +3°C° 0.3 mm 5 mps 737 mmHg 85%
    22:00 +3°C° 0.3 mm 5 mps 737 mmHg 86%
    23:00 +3°C° 0.1 mm 5 mps 736 mmHg 85%

    28 November, Tuesday

    Time Temperature Precipitation Wind Pressure Humidity
    00:00 +2°C° 0.1 mm 5 mps 736 mmHg 84%
    01:00 +2°C° 0.1 mm 5 mps 736 mmHg 83%
    02:00 +2°C° 0.1 mm 5 mps 735 mmHg 84%
    03:00 +2°C° 0.1 mm 5 mps 735 mmHg 84%
    04:00 +2°C° 0.1 mm 5 mps 734 mmHg 85%
    05:00 +2°C° 0.1 mm 5 mps 734 mmHg 86%
    06:00 +2°C° 0.1 mm 5 mps 734 mmHg 86%
    07:00 +3°C° 0.1 mm 4 mps 733 mmHg 87%
    08:00 +3°C° 0.2 mm 4 mps 733 mmHg 87%
    09:00 +4°C° 0.2 mm 4 mps 733 mmHg 88%
    10:00 +4°C° 0.2 mm 4 mps 732 mmHg 88%
    11:00 +4°C° 0.3 mm 4 mps 732 mmHg 87%
    12:00 +3°C° 0.3 mm 5 mps 731 mmHg 85%
    13:00 +4°C° 0.3 mm 6 mps 730 mmHg 83%
    14:00 +4°C° 0.7 mm 6 mps 730 mmHg 83%
    15:00 +3°C° 0.7 mm 5 mps 729 mmHg 82%
    16:00 +3°C° 0.7 mm 5 mps 728 mmHg 81%
    17:00 +3°C° 0.2 mm 5 mps 728 mmHg 81%
    18:00 +3°C° 0.2 mm 5 mps 728 mmHg 81%
    19:00 +3°C° 0.2 mm 5 mps 728 mmHg 81%
    20:00 +2°C° 0.1 mm 5 mps 729 mmHg 84%
    21:00 +2°C° 0.1 mm 5 mps 729 mmHg 86%
    22:00 +3°C° 0.1 mm 4 mps 729 mmHg 88%
    23:00 +1°C° 0 mm 4 mps 730 mmHg 89%
    Show more